Regional Weather Roundup
Issued by NWS Sioux Falls, SD

Home | Current Version | Previous Version | Graphics & Text | Print | Product List | Glossary On
Versions: 1 2 3 4 5 6 7 8 9 10 11 12 13 14 15 16 17 18 19 20 21 22 23 24 25 26 27 28 29 30 31 32 33 34 35 36 37 38 39 40 41 42 43 44 45 46 47 48 49 50
000
ASUS43 KFSD 261710
RWRFSD

WEATHER ROUNDUP FOR SE SOUTH DAKOTA/SW MINNESOTA/NW IOWA
NATIONAL WEATHER SERVICE SIOUX FALLS SD
1200 PM CDT FRI AUG 26 2016

NOTE: "FAIR" INDICATES FEW OR NO CLOUDS BELOW 12,000 FEET WITH NO
SIGNIFICANT WEATHER AND OR OBSTRUCTIONS TO VISIBILITY.


SDZ038>040-050-052>070-261800-
SOUTHEAST SOUTH DAKOTA

CITY           SKY/WX    TMP DP  RH WIND       PRES   REMARKS
BROOKINGS      CLOUDY    67  55  65 VRB7      30.16F
CHAMBERLAIN    CLOUDY    69  55  60 S5        30.17R
HURON          SUNNY     69  52  54 VRB7      30.16R
MADISON        FAIR      66  55  68 S9        30.17F
MITCHELL       CLOUDY    69  52  54 VRB5      30.16F
SIOUX FALLS    PTSUNNY   71  57  61 SE7       30.16F
WINNER         CLOUDY    70  52  52 SW5       30.16S
YANKTON        MOSUNNY   68  55  64 E7        30.14F
$$

MNZ071-072-080-081-089-090-097-098-261800-
SOUTHWEST MINNESOTA

CITY           SKY/WX    TMP DP  RH WIND       PRES   REMARKS
FAIRMONT       CLOUDY    65  57  75 SE7       30.19F
JACKSON          N/A     66  54  63 SE6       30.19F
LUVERNE        CLOUDY    64  55  72 SE7       30.17F
MARSHALL       MOSUNNY   66  56  70 SE6       30.18S
MONTEVIDEO     MOSUNNY   70  55  60 S3        30.19S
REDWOOD FALLS  MOSUNNY   67  55  65 S8        30.18F
TRACY          PTSUNNY   67  57  68 S3        30.18F
WINDOM         CLOUDY    66  54  63 SE5       30.18F
WORTHINGTON    CLOUDY    65  58  78 E6        30.19F
$$

IAZ001>003-012>014-020>022-031-032-NEZ013-014-SDZ071-261800-
NORTHWEST IOWA

CITY           SKY/WX    TMP DP  RH WIND       PRES   REMARKS
CHEROKEE       CLOUDY    68  61  79 SE6       30.17S
DENISON        CLOUDY    68  61  77 E10       30.13S HAZE
ESTHERVILLE    CLOUDY    64  57  78 E8        30.19F
LE MARS        PTSUNNY   70  59  68 SE7       30.17F
ORANGE CITY    CLOUDY    68  61  77 E6        30.17F
SHELDON        CLOUDY    66  59  77 SE8       30.16F
SIOUX CITY     CLOUDY    70  60  70 E3        30.15F
SPENCER        CLOUDY    66  56  70 E10       30.18F
STORM LAKE     CLOUDY    66  61  82 E8        30.17F
$$

ABBREVIATIONS USED IN REMARKS
   TC - TEMPERATURE IN CELSIUS
  WCI - WIND CHILL INDEX
   HX - HEAT INDEX
  VSB - VISIBILITY





USA.gov is the U.S. government's official web portal to all federal, state and local government web resources and services.